Dewpoint
58 58 58 58 57 57 57 57 57 57 57 57 56 55 55 55 55 52 50 52 50 48 48 46 46 44 44 43 41 43 44 44 44 41 40 41 42 44 43 45 43 41 39 38 39 36 34 52 48 43 48 52 52 56
58 58 58 58 58 57 57 57 57 57 57 57 57 56 56 55 55 54 49 50 52 50 48 49 48 48 47 45 42 42 43 42 45 42 43 42 41 46 44 40 46 39 43 44 43 41 50 51 50 53 56 53 53 53
57 57 57 58 57 57 56 56 57 57 57 57 57 56 56 55 55 53 49 50 51 49 48 47 44 47 49 48 44 41 44 44 42 45 44 43 39 46 42 43 44 47 50 44 45 48 50 50 53 55 56 56 54 55
57 57 57 57 57 57 56 56 56 56 57 57 57 56 56 55 55 53 49 50 51 50 45 47 47 44 45 44 44 44 43 44 43 45 43 43 41 42 40 43 46 48 48 46 45 47 51 52 54 55 53 56 55 54
56 56 57 57 57 56 56 56 56 56 56 57 57 56 56 55 54 52 50 50 53 50 45 46 48 47 46 45 44 44 44 43 44 43 43 41 44 43 43 44 46 49 46 44 43 50 51 51 54 57 55 52 48 50
55 56 56 56 56 56 56 56 56 56 56 56 56 56 55 54 53 50 50 55 54 55 48 43 47 47 47 45 45 46 46 45 47 44 44 45 45 43 42 40 42 48 50 50 47 53 52 54 55 54 56 54 52 52
55 55 56 56 55 55 55 55 55 55 56 56 56 56 55 53 49 47 48 53 51 52 48 45 44 46 46 45 46 46 47 48 48 46 46 46 45 45 43 41 42 46 50 51 53 49 43 48 49 54 53 53 54 53
55 55 55 55 55 55 55 54 54 54 55 55 55 55 54 53 51 48 51 51 50 50 49 43 44 45 46 43 43 48 46 47 46 46 46 44 44 45 42 43 43 45 49 51 48 46 46 53 54 55 56 55 56 56
55 55 55 55 54 54 53 53 53 54 55 55 55 54 50 48 47 52 55 53 52 50 46 46 43 41 46 44 47 46 47 44 47 44 44 45 44 42 43 44 43 44 49 47 50 48 49 54 55 54 55 56 56 57
55 54 54 54 53 53 53 53 53 54 55 54 50 48 46 50 57 55 51 49 51 51 48 46 46 43 43 43 44 44 46 45 43 44 47 44 43 44 44 45 46 47 48 49 50 51 55 54 53 54 55 57 59 61
54 53 53 53 53 52 52 52 52 54 53 50 47 46 51 56 51 51 48 48 48 46 46 45 45 43 45 41 43 46 44 45 41 42 44 43 43 45 45 44 46 49 47 51 51 53 54 53 52 53 55 57 59 61
53 52 52 52 52 52 52 52 52 52 50 50 50 53 53 50 47 46 46 45 45 44 46 45 45 45 45 48 44 44 42 43 39 44 43 41 44 53 51 48 48 50 49 52 54 53 53 52 52 52 53 57 59 61
52 52 51 51 51 51 51 52 53 53 53 52 50 50 47 47 41 43 39 43 43 45 44 46 45 45 46 47 44 44 43 42 44 39 42 43 53 54 54 54 53 54 53 53 52 52 52 51 51 52 50 51 52 55
51 51 51 51 50 51 51 51 52 53 51 48 44 37 44 43 43 43 42 42 44 46 44 46 45 44 46 44 44 42 44 42 39 37 39 51 53 55 55 56 55 52 51 50 50 50 50 50 50 51 51 50 51 54
50 50 50 50 50 50 50 51 52 52 50 46 45 38 40 43 43 44 44 43 44 45 46 44 46 46 45 44 46 44 42 40 40 43 48 53 54 55 54 55 54 53 53 50 50 50 50 50 50 51 51 51 50 53
48 48 47 49 49 50 50 51 51 51 49 47 46 43 43 42 41 41 41 42 47 47 50 48 47 45 44 43 42 42 41 41 48 50 52 54 54 55 55 55 55 54 53 53 53 52 53 53 52 52 52 52 51 52
48 44 48 49 49 50 50 49 49 47 46 44 42 44 44 43 43 43 41 46 50 49 47 49 45 43 45 43 40 41 44 46 48 47 49 50 53 53 56 57 55 54 53 53 53 53 53 53 52 52 50 52 50 50
44 44 49 49 48 48 48 47 47 45 42 43 42 41 42 42 40 39 39 40 46 49 48 45 49 45 41 40 41 46 48 48 48 48 47 48 49 51 53 55 56 55 56 56 56 55 55 54 53 52 52 51 50 50
44 46 49 49 47 46 43 44 46 41 41 43 42 41 39 39 40 40 41 42 43 50 49 48 45 44 45 43 46 48 48 49 48 49 47 46 47 50 49 50 52 55 55 54 54 54 55 55 54 54 53 53 51 51
47 49 49 48 48 44 42 43 46 41 39 40 40 37 38 37 36 36 37 39 42 46 44 43 43 44 44 44 44 45 46 47 48 46 45 45 46 47 47 49 50 51 52 55 55 53 56 55 55 55 53 52 52 51
46 48 49 46 46 45 44 42 41 41 37 35 37 39 38 39 38 38 37 38 39 43 41 44 43 43 44 44 46 45 45 47 44 45 45 46 46 47 46 45 44 44 45 46 47 47 51 53 53 53 52 51 51 51
44 49 46 46 43 43 44 45 43 45 43 40 38 35 35 34 36 37 38 37 37 37 40 41 41 42 43 43 44 43 43 44 45 46 45 45 45 44 45 44 44 44 43 45 46 46 46 46 47 48 51 51 47 46
48 47 45 44 41 40 38 44 40 40 39 40 40 39 37 37 37 38 35 36 35 36 37 39 39 40 40 39 42 45 45 44 45 46 46 46 46 47 47 46 45 46 46 46 46 46 46 45 45 45 44 45 45 44
48 43 39 39 39 38 40 39 41 39 37 34 33 32 35 37 38 37 35 36 36 38 38 38 39 39 41 42 43 43 43 45 46 46 45 44 43 43 44 44 44 44 44 46 47 47 47 46 46 46 46 46 46 47
37 38 40 35 39 38 37 37 37 37 34 35 33 33 34 36 34 32 31 32 34 35 37 38 39 40 39 40 40 40 40 41 40 40 42 43 44 44 43 43 44 45 46 45 45 45 44 45 46 47 47 47 46 46
34 39 35 37 37 36 35 33 35 34 32 31 32 33 34 33 32 31 33 34 34 35 36 37 37 38 39 39 40 42 43 45 48 45 43 44 46 45 44 47 50 49 49 46 44 44 43 44 44 45 46 48 45 46
33 36 39 40 39 38 37 36 35 34 33 31 32 32 32 31 31 32 35 37 37 39 44 44 43 42 41 41 43 44 45 46 47 46 45 45 47 47 45 45 43 43 46 48 47 47 44 43 43 45 45 49 50 51
37 39 37 38 38 39 35 35 35 34 34 35 35 32 33 34 33 35 39 39 39 39 39 42 42 43 42 41 42 44 46 46 47 48 48 46 46 46 46 46 45 45 49 47 46 45 45 44 43 45 43 48 50 52
38 39 38 36 37 37 36 35 34 35 37 36 35 35 34 36 37 37 37 38 38 40 39 39 38 41 42 42 40 38 37 41 43 42 41 41 42 41 46 49 50 50 51 46 42 43 43 43 42 41 43 47 50 50
35 37 36 36 36 36 38 36 34 34 34 34 35 35 35 35 35 36 35 35 37 37 38 39 38 36 35 36 36 36 37 37 37 39 39 40 40 39 39 41 43 43 41 42 40 41 41 43 44 44 43 44 45 45
34 34 34 35 34 35 36 36 35 35 35 34 34 34 34 36 36 37 37 38 39 39 37 36 35 35 35 34 34 35 35 37 37 37 37 36 37 37 36 36 36 38 38 37 39 44 44 43 44 43 44 45 46 46
34 32 31 30 31 34 36 37 36 36 36 35 35 36 36 36 35 37 38 43 44 44 43 42 40 39 41 39 39 39 38 38 40 40 39 39 40 40 40 38 36 36 38 39 41 41 41 41 42 44 45 46 46 47
35 34 33 32 31 32 40 39 39 39 39 38 36 36 37 37 35 39 50 50 48 47 47 47 48 50 49 50 50 49 44 44 43 42 41 41 41 42 44 45 45 44 42 42 41 40 40 43 44 44 44 46 46 45
Lifted_Index
4 4 3 3 4 4 4 5 6 6 6 7 7 7 7 7 7 7 8 8 7 6 6 6 6 6 7 7 7 7 6 5 4 3 3 3 3 2 2 2 2 2 1 1 0 -0 -0 -1 -1 -1 -0 -0 -1 -1
4 4 3 3 3 4 4 5 5 6 6 6 7 7 7 7 7 7 7 7 7 7 6 6 6 6 6 6 7 7 6 5 5 4 4 4 3 3 3 3 2 2 1 1 1 0 -0 -0 -0 -0 -0 -0 -1 -1
3 3 3 3 3 3 3 4 4 5 6 6 7 7 7 7 7 7 7 7 7 7 6 6 6 6 6 6 7 7 7 6 6 5 5 4 4 4 3 3 3 2 2 2 1 1 1 0 0 -0 -1 -1 -1 -1
3 3 3 3 3 3 3 3 4 4 5 6 6 7 7 7 7 7 7 7 7 7 6 6 6 6 6 6 6 7 7 6 6 6 5 5 5 5 4 4 3 3 2 2 1 1 1 0 -0 -1 -1 -1 -1 -1
3 3 3 3 3 3 3 3 4 4 4 5 6 7 7 7 7 7 7 7 7 7 7 6 6 6 6 6 6 6 6 6 6 6 6 6 5 5 5 4 4 3 2 2 1 0 -0 -1 -1 -1 -1 -1 -1 -1
5 4 3 3 3 3 3 3 3 4 4 5 6 7 7 8 7 7 7 7 8 8 7 6 6 6 6 6 6 6 5 5 5 5 5 5 5 5 5 4 4 3 3 2 1 1 -0 -1 -1 -1 -1 -1 -2 -2
7 6 5 4 4 4 4 4 4 4 4 5 6 7 8 8 8 7 7 7 8 8 7 6 6 6 5 5 5 5 5 5 5 5 5 5 5 5 5 4 4 4 3 2 2 1 1 -0 -1 -2 -2 -2 -3 -3
9 8 6 5 4 4 4 4 4 4 4 5 6 7 8 8 8 7 7 7 8 8 7 6 6 5 5 5 4 4 4 4 4 5 5 5 5 5 5 4 4 4 3 2 2 1 1 -0 -1 -2 -3 -3 -3 -4
9 8 7 6 5 5 5 5 5 5 5 6 7 7 8 8 8 7 7 8 8 7 7 6 6 5 5 4 4 4 4 4 4 4 4 4 4 4 4 4 4 4 3 2 2 1 0 -1 -2 -2 -3 -3 -3 -4
10 9 8 8 7 6 6 5 5 6 6 7 7 7 8 8 8 8 7 7 7 7 7 6 6 6 5 5 4 4 4 4 4 4 3 3 3 3 3 3 4 3 3 2 1 0 -0 -1 -1 -1 -2 -2 -3 -3
10 10 9 9 9 8 7 6 6 6 7 7 7 7 8 8 8 7 7 7 7 7 7 6 6 6 6 5 4 4 4 4 3 3 3 2 2 2 2 2 3 3 2 1 -0 -1 -1 -1 -1 -1 -1 -2 -3 -3
10 10 11 11 10 10 8 7 7 7 7 7 7 7 7 7 7 7 7 6 6 6 6 5 5 6 5 5 4 4 4 4 4 3 2 2 1 0 1 1 2 2 1 -0 -1 -1 -1 -1 -1 -1 -1 -2 -2 -3
11 11 11 12 12 11 10 8 8 8 8 8 8 7 7 7 7 7 6 5 5 5 5 5 5 5 5 5 4 4 4 4 4 3 2 1 0 -0 -0 0 0 0 -0 -1 -1 -1 -1 -0 0 0 -0 -1 -1 -2
11 12 12 13 12 12 10 10 9 9 9 8 8 8 8 8 7 6 6 5 5 4 4 4 4 4 5 5 4 4 4 4 3 3 2 0 -0 -0 -0 -1 -0 -0 -0 -0 -0 -0 0 1 1 1 1 1 -0 -1
12 12 13 13 13 12 11 11 10 9 9 8 8 8 8 7 6 5 5 5 4 4 4 4 4 4 4 4 4 4 4 3 3 2 1 0 0 0 -0 -0 -0 -0 0 0 0 0 1 1 2 2 2 2 1 -0
12 12 13 13 13 12 12 11 10 9 9 9 9 8 8 7 6 5 4 4 4 4 3 3 3 4 4 4 4 4 3 3 3 2 1 1 1 1 0 -0 -0 0 0 1 1 1 1 1 2 2 2 2 2 2
11 12 12 12 12 12 12 11 10 10 10 10 10 8 7 6 5 4 4 4 3 3 3 3 3 4 4 4 4 4 3 3 3 2 2 1 1 1 1 0 0 0 0 0 0 1 1 1 1 2 2 2 2 2
11 11 11 11 11 11 11 10 10 10 10 10 9 8 7 6 5 4 4 4 4 3 3 3 3 4 4 4 3 3 3 3 3 3 2 2 2 2 2 2 1 1 1 0 0 1 1 1 1 1 1 2 2 2
10 9 9 10 10 10 9 9 9 10 10 9 8 7 7 6 6 5 5 5 5 4 3 3 3 3 3 3 2 3 3 4 4 4 3 3 3 3 3 2 2 2 1 1 1 1 1 1 1 1 1 2 2 2
8 8 8 9 8 8 7 8 8 9 9 8 7 6 7 7 7 7 7 6 6 5 4 3 3 3 3 2 2 3 3 4 4 4 4 4 3 3 3 2 2 2 2 2 2 1 1 1 1 1 2 2 2 2
7 7 8 8 7 7 6 6 7 7 7 7 6 5 6 6 7 7 7 6 6 5 4 4 3 3 3 3 3 3 4 4 5 5 5 5 4 4 3 3 3 3 3 3 3 2 2 1 2 2 3 3 3 3
7 7 7 7 7 6 6 5 5 5 5 5 4 5 5 5 5 6 6 6 6 5 5 4 4 4 4 4 4 4 4 4 5 5 5 5 5 4 4 3 3 3 3 3 2 2 2 2 3 3 3 4 4 4
6 6 6 7 6 6 5 5 5 4 4 3 3 3 4 4 4 5 6 6 5 5 5 5 5 5 5 5 4 4 4 4 4 4 4 5 4 4 4 4 4 4 4 3 2 2 2 3 3 4 4 4 5 5
6 6 6 6 6 5 5 5 4 4 3 3 3 3 3 4 4 5 6 5 5 5 5 5 5 5 5 5 4 4 4 4 4 4 4 4 4 4 4 4 4 4 4 3 2 2 2 3 3 4 4 4 4 4
6 5 5 5 5 5 4 4 3 3 3 3 4 4 5 5 5 6 6 5 5 5 5 5 5 5 5 4 4 4 4 4 4 3 3 3 3 4 3 3 3 3 3 3 2 2 2 3 3 4 3 3 3 3
5 5 5 4 4 4 4 3 3 4 4 4 5 5 6 6 6 6 5 5 5 5 5 4 4 4 4 4 4 3 3 3 3 3 3 2 3 3 2 2 2 2 2 2 2 1 2 2 3 3 3 3 3 3
6 5 4 4 4 4 4 4 4 4 5 5 5 5 6 6 5 5 5 5 5 4 4 4 4 4 4 3 3 3 3 2 2 2 2 2 2 2 1 1 1 1 1 1 1 2 2 2 2 2 2 2 2 2
5 5 4 4 4 4 4 4 4 5 5 4 5 5 5 5 4 4 4 4 4 4 4 4 4 4 3 3 3 3 2 2 2 1 1 2 1 1 1 1 1 1 1 1 1 1 2 2 2 2 3 2 2 1
5 5 5 4 4 4 4 4 4 4 4 4 4 4 4 4 4 4 3 3 3 4 4 4 4 3 3 3 3 3 3 2 2 2 1 1 1 1 1 1 0 1 1 1 1 1 2 2 2 2 2 2 2 1
6 5 5 5 4 4 4 4 4 4 4 4 4 4 4 3 3 3 3 3 3 3 3 3 3 3 3 3 3 3 3 3 3 2 2 2 1 1 1 1 1 1 1 1 1 1 1 2 2 1 2 2 2 2
6 6 5 5 4 4 4 4 3 3 3 4 4 4 4 4 4 4 4 4 3 3 3 3 3 3 3 3 3 3 3 3 3 3 2 2 2 2 2 2 2 1 2 2 2 1 1 1 1 1 1 2 2 2
5 5 5 5 4 4 4 3 3 3 3 4 4 4 4 4 3 4 4 4 3 3 3 3 3 3 3 3 3 3 2 3 3 2 2 2 2 2 2 1 1 1 2 2 2 2 2 2 2 2 2 2 2 2
4 4 5 5 5 4 4 3 3 3 4 4 4 4 3 3 3 3 3 3 3 3 3 3 3 3 3 3 2 2 2 2 2 2 2 2 1 1 1 1 1 1 1 2 2 2 2 2 2 2 2 2 2 2